This demonstration page uses our WeatherBlox Daily Observations layout. Learn more.

Left ArrowRight Arrow

Hourly Observations for October 1, 2022

Temp ( °F °C ) Dew Point ( °F °C ) Humidity (%) Winds ( mph kmh ) Pressure ( in mb ) Visibility ( mi km ) Precip ( " mm )
12:52 am 00:52 Mostly Clear 59 15 43 6.1 55 55 SSE 13 20 30.06 1018 10 16 0.00 0.00
1:52 am 01:52 Partly Cloudy 59 15 43 6.1 55 55 SSE 10 17 30.06 1018 10 16 0.00 0.00
2:52 am 02:52 Partly Cloudy 60 15.6 43 6.1 53 53 SSE 12 19 30.09 1019 10 16 0.00 0.00
3:52 am 03:52 Mostly Cloudy 58 14.4 43 6.1 57 57 SSE 10 17 30.10 1019 10 16 0.00 0.00
4:52 am 04:52 Mostly Cloudy 56 13.3 44 6.7 64 64 SE 7 11 30.11 1020 10 16 0.00 0.00
5:52 am 05:52 Mostly Cloudy 55 12.8 44 6.7 66 66 SE 3 6 30.13 1020 10 16 0.00 0.00
6:52 am 06:52 Mostly Cloudy 54 12.2 45 7.2 71 71 SE 8 13 30.14 1021 10 16 0.00 0.00
7:52 am 07:52 Mostly Cloudy 55 12.8 45 7.2 69 69 SE 7 11 30.16 1021 10 16 0.00 0.00
8:52 am 08:52 Mostly Cloudy 58 14.4 45 7.2 62 62 SE 10 17 30.17 1022 10 16 0.00 0.00
9:52 am 09:52 Mostly Sunny 62 16.7 45 7.2 53 53 SSE 14 22 30.18 1022 10 16 0.00 0.00
10:52 am 10:52 Mostly Sunny 67 19.4 45 7.2 45 45 SSE 17 28 30.16 1022 10 16 0.00 0.00
11:52 am 11:52 Mostly Sunny 70 21.1 46 7.8 42 42 SSE 16 26 30.16 1021 10 16 0.00 0.00
12:52 pm 12:52 Mostly Sunny 75 23.9 45 7.2 34 34 SSE 14 22 30.14 1021 10 16 0.00 0.00
1:52 pm 13:52 Mostly Sunny 76 24.4 44 6.7 32 32 SSE 14 22 30.13 1020 10 16 0.00 0.00
2:52 pm 14:52 Partly Cloudy 78 25.6 44 6.7 30 30 SSE 14 22 30.11 1020 10 16 0.00 0.00
3:52 pm 15:52 Mostly Cloudy 79 26.1 43 6.1 28 28 SE 16 26 30.10 1019 10 16 0.00 0.00
4:52 pm 16:52 Mostly Cloudy 79 26.1 43 6.1 28 28 SE 15 24 30.11 1020 10 16 0.00 0.00
5:52 pm 17:52 Mostly Cloudy 77 25 42 5.6 29 29 SSE 12 19 30.11 1020 10 16 0.00 0.00
6:52 pm 18:52 Mostly Cloudy 75 23.9 42 5.6 31 31 ESE 10 17 30.12 1020 10 16 0.00 0.00
7:52 pm 19:52 Cloudy 72 22.2 44 6.7 37 37 ESE 10 17 30.14 1021 10 16 0.00 0.00
8:52 pm 20:52 Mostly Cloudy 69 20.6 44 6.7 40 40 SE 8 13 30.16 1021 10 16 0.00 0.00
9:52 pm 21:52 Mostly Cloudy 67 19.4 44 6.7 44 44 SE 8 13 30.17 1022 10 16 0.00 0.00
10:52 pm 22:52 Mostly Cloudy 65 18.3 44 6.7 47 47 ESE 8 13 30.19 1022 10 16 0.00 0.00
11:52 pm 23:52 Mostly Cloudy 63 17.2 44 6.7 50 50 SE 8 13 30.20 1023 10 16 0.00 0.00

Powered by AerisWeather